[[{"header":{"parameterUnit":"m.s-1","parameterCategory":1,"la1":30.2991,"la2":30.254,"lo1":-89.0895,"lo2":-89.0444,"dy":0.0017,"dx":0.0017,"nx":28,"ny":28,"refTime":"2024-08-19T09:00:00:Z","depth":0,"parameterNumber":2,"parameterNumberName":"U-component_of_WINDS"},"data":[0,0,0,0,0,0,0,0,0,0,0,0,0,0,0,0,0,0,0,0,0,0,0,0,0,0,0,0,0,0,0,0,0,0,0,0,0,0,0,0,0,0,0,0,0,0,0,0,0,0,0,0,0,0,0,0,0,0,4.038,4.0382,0,4.054,4.0542,4.0544,4.0495,4.0491,4.0488,4.0485,4.0655,4.0663,4.067,0,0,0,0,0,0,0,0,0,0,0,0,0,4.0038,4.0044,4.038,4.0382,4.0384,4.054,4.0542,4.0545,4.0495,4.0491,4.0487,4.0483,4.0653,4.0662,4.0671,0,0,0,0,0,0,0,0,0,0,0,0,0,4.0191,4.0046,4.038,4.0378,4.0379,4.054,4.0542,4.0545,4.0496,4.0491,4.0486,4.0481,4.065,4.0661,4.0672,4.0846,0,0,4.0708,4.0713,0,0,0,0,0,0,0,0,4.0182,4.0204,4.0376,4.0378,4.038,4.0492,4.0484,4.0646,4.0497,4.0452,4.0485,4.0479,4.0606,4.062,4.0662,4.0854,4.0861,4.0709,4.0716,4.0721,4.0724,0,0,0,0,0,0,0,4.0172,4.0197,4.0444,4.0379,4.0381,4.0372,4.0388,4.0515,4.0556,4.0456,4.0452,4.0472,4.0606,4.0651,4.0666,4.0864,4.0708,4.0719,4.0726,4.073,4.1208,4.1213,0,0,0,0,0,0,4.0159,4.0188,4.0438,4.0448,4.0267,4.0382,4.04,4.0462,4.0554,4.0563,4.0476,4.0469,4.0634,4.0652,4.0671,4.0882,4.0721,4.0732,4.0738,4.1202,4.1209,4.1215,0,0,0,0,0,0,4.0152,4.0182,4.0432,4.0317,4.0348,4.0393,4.0463,4.0467,4.0512,4.0569,4.0577,4.0514,4.063,4.0655,4.0803,4.0887,4.0737,4.0747,4.1196,4.1204,4.1212,4.1303,0,0,0,0,0,0,4.0142,4.0179,4.0244,4.0319,4.0355,4.0559,4.0468,4.0474,4.0532,4.0524,4.0607,4.0616,4.0628,4.0786,4.0814,4.09,4.0756,4.1188,4.1199,4.121,4.1293,4.1314,4.1332,0,0,0,0,0,4.013,4.0264,4.0248,4.0278,4.0436,4.0564,4.0584,4.0594,4.0539,4.0605,4.0642,4.0614,4.0873,4.0801,4.0833,4.0924,4.1183,4.1196,4.1209,4.1284,4.131,4.1331,0,0,0,0,0,0,4.02,4.0274,4.0256,4.0418,4.0485,4.0555,4.0639,4.062,4.0705,4.0695,4.0705,4.0724,4.0876,4.0914,4.0833,4.1097,4.102,4.104,4.1067,4.1091,4.1111,4.1099,4.0766,0,0,0,0,0,4.0234,4.0329,4.039,4.0527,4.0561,4.0595,4.0651,4.0652,4.0722,4.0751,4.0798,4.0869,4.0967,4.1031,4.1124,4.1298,4.1317,4.1376,4.1396,4.1411,4.1429,4.1526,4.1554,4.1258,4.1258,4.1258,0,0,4.0306,4.0358,4.0418,4.0542,4.0594,4.0695,4.0619,4.0728,4.0804,4.0768,4.091,4.0948,4.1028,4.119,4.1264,4.1227,4.1515,4.1428,4.144,4.1449,4.1542,4.157,4.1595,4.1267,4.1265,4.1264,0,0,4.0489,4.0537,4.0657,4.071,4.0789,4.081,4.0839,4.0913,4.0936,4.1078,4.1053,4.1145,4.1312,4.1371,4.1422,4.1628,4.1606,4.1658,4.176,4.1855,4.1878,4.1899,4.1974,4.2001,4.1675,4.1675,4.1676,0,4.0569,4.0717,4.0722,4.0834,4.089,4.086,4.0984,4.1036,4.1142,4.1182,4.1139,4.1349,4.1401,4.1577,4.1627,4.1669,4.1705,4.1649,4.1874,4.1895,4.1914,4.1986,4.2014,4.1681,4.1681,4.168,4.168,0,4.0813,4.0916,4.1004,4.1106,4.1172,4.1289,4.1314,4.1381,4.1377,4.1403,4.155,4.1611,4.1716,4.1758,4.1756,4.1935,4.191,4.187,4.1793,4.1948,4.2016,4.2043,4.169,4.1688,4.1686,4.1685,0,0,4.1045,4.1146,4.1179,4.1225,4.131,4.1391,4.1508,4.1609,4.1667,4.1742,4.1841,4.1984,4.1948,4.2007,4.2011,4.2094,4.2255,4.2044,4.2046,4.2083,4.2459,4.2489,4.252,4.224,4.2245,4.225,4.2452,0,4.1235,4.1438,4.1446,4.1632,4.173,4.1703,4.1805,4.1869,4.1898,4.1986,4.2019,4.212,4.2064,4.2099,4.218,4.2218,4.2331,4.2204,4.2336,4.234,4.2318,4.2556,4.2588,4.2776,4.2479,4.2483,4.2486,0,4.1485,4.1566,4.1761,4.1833,4.1874,4.1965,4.2059,4.2143,4.2217,4.2232,4.2298,4.229,4.2412,4.233,4.25,4.2413,4.2468,4.2495,4.2503,4.2516,4.2424,4.2578,4.2836,4.2865,4.2528,4.2525,4.2522,0,4.1637,4.1794,4.1931,4.1972,4.2058,4.2123,4.2163,4.2231,4.2292,4.2375,4.2415,4.2512,4.2565,4.2642,4.2662,4.2599,4.2832,4.2751,4.285,4.285,4.2902,4.2898,4.3174,4.2934,4.2934,4.2933,4.2933,0,4.185,4.1971,4.2001,4.2086,4.2221,4.223,4.2365,4.24,4.2461,4.2554,4.2538,4.2626,4.2646,4.2739,4.2755,4.2895,4.2919,4.2936,4.294,4.2939,4.2937,4.2976,4.2964,4.2941,4.2939,4.2938,4.2937,0,4.2043,4.2067,4.2216,4.2285,4.2305,4.2403,4.2463,4.2546,4.2572,4.269,4.2719,4.2761,4.287,4.2896,4.3026,4.3038,4.3203,4.3193,4.3178,4.3178,4.3276,4.3267,4.3588,4.3632,4.3362,4.3364,4.3366,0,4.2178,4.227,4.2349,4.2409,4.2452,4.2549,4.261,4.2623,4.2688,4.2779,4.2852,4.2958,4.3043,4.3219,4.3263,4.3363,4.3356,4.3462,4.3371,4.3368,4.336,4.3355,4.3365,4.348,4.3482,4.3485,4.3487,0,4.2416,4.2424,4.2511,4.2605,4.2678,4.2752,4.2823,4.2874,4.2897,4.2972,4.3082,4.3148,4.328,4.3387,4.3487,4.3531,4.3515,4.3514,4.3543,4.3544,4.3532,4.3542,4.3226,4.3507,4.3505,4.3504,4.3503,4.3502,4.2586,4.2667,4.2735,4.2835,4.2889,4.2956,4.3037,4.3073,4.3164,4.3271,4.3273,4.3394,4.3467,4.36,4.3649,4.3745,4.3713,4.3754,4.3765,4.3775,4.3785,4.3515,4.3763,4.3763,4.3762,4.3762,4.3761,0,4.2825,4.2867,4.2958,4.3057,4.3136,4.311,4.3187,4.3256,4.3361,4.3429,4.3513,4.3641,4.3744,4.3796,4.3899,4.3966,4.3961,4.3993,4.3989,4.4,4.3806,4.3772,4.3995,4.3995,4.3995,4.3995,4.3995,4.3995,4.2958,4.3094,4.311,4.3274,4.3317,4.3432,4.3479,4.3542,4.3596,4.3738,4.3823,4.3855,4.3918,4.4026,4.412,4.4133,4.4173,4.4209,4.4219,4.4037,4.4013,4.3991,4.3958,4.4217,4.4218,4.4404,4.4406,4.4407]},{"header":{"parameterUnit":"m.s-1","parameterCategory":1,"la1":30.2991,"la2":30.254,"lo1":-89.0895,"lo2":-89.0444,"dy":0.0017,"dx":0.0017,"nx":28,"ny":28,"refTime":"2024-08-19T09:00:00:Z","depth":0,"parameterNumber":3,"parameterNumberName":"V-component_of_WINDS"},"data":[0,0,0,0,0,0,0,0,0,0,0,0,0,0,0,0,0,0,0,0,0,0,0,0,0,0,0,0,0,0,0,0,0,0,0,0,0,0,0,0,0,0,0,0,0,0,0,0,0,0,0,0,0,0,0,0,0,0,-1.7766,-1.7767,0,-1.7841,-1.7842,-1.7843,-1.787,-1.787,-1.7869,-1.7869,-1.7944,-1.7946,-1.7948,0,0,0,0,0,0,0,0,0,0,0,0,0,-1.7644,-1.7646,-1.7766,-1.7767,-1.7768,-1.7841,-1.7842,-1.7843,-1.787,-1.787,-1.7869,-1.7869,-1.7943,-1.7945,-1.7948,0,0,0,0,0,0,0,0,0,0,0,0,0,-1.7706,-1.7647,-1.7766,-1.779,-1.7793,-1.7841,-1.7842,-1.7843,-1.787,-1.787,-1.7869,-1.7869,-1.7942,-1.7945,-1.7948,-1.7977,0,0,-1.7959,-1.796,0,0,0,0,0,0,0,0,-1.7702,-1.771,-1.7786,-1.7789,-1.7792,-1.7846,-1.7826,-1.7888,-1.787,-1.7841,-1.7869,-1.7869,-1.7911,-1.7917,-1.7932,-1.798,-1.7983,-1.7959,-1.7961,-1.7962,-1.7963,0,0,0,0,0,0,0,-1.7698,-1.7707,-1.7796,-1.7787,-1.7791,-1.7797,-1.7805,-1.7838,-1.7877,-1.7843,-1.7845,-1.7854,-1.7913,-1.7929,-1.7934,-1.7984,-1.7959,-1.7962,-1.7964,-1.7965,-1.8058,-1.8059,0,0,0,0,0,0,-1.769,-1.7703,-1.7793,-1.7798,-1.7745,-1.7799,-1.7809,-1.7829,-1.7877,-1.7884,-1.7854,-1.7855,-1.7923,-1.793,-1.7936,-1.7972,-1.7962,-1.7965,-1.7967,-1.8058,-1.8058,-1.8059,0,0,0,0,0,0,-1.7687,-1.7698,-1.779,-1.7751,-1.7764,-1.7802,-1.7824,-1.7831,-1.7846,-1.7885,-1.7892,-1.7863,-1.7923,-1.7932,-1.7966,-1.7975,-1.7967,-1.797,-1.8057,-1.8058,-1.8059,-1.8043,0,0,0,0,0,0,-1.7684,-1.7697,-1.7708,-1.7751,-1.7766,-1.782,-1.7825,-1.7832,-1.7852,-1.7854,-1.7896,-1.7902,-1.7923,-1.7961,-1.797,-1.7979,-1.7973,-1.8057,-1.8058,-1.8058,-1.8043,-1.8044,-1.8044,0,0,0,0,0,-1.7679,-1.7701,-1.7709,-1.7719,-1.7781,-1.782,-1.7828,-1.7853,-1.7853,-1.7864,-1.7889,-1.7901,-1.7973,-1.7965,-1.7974,-1.7985,-1.8056,-1.8057,-1.8058,-1.8043,-1.8044,-1.8044,0,0,0,0,0,0,-1.7657,-1.7707,-1.7716,-1.7752,-1.7782,-1.7825,-1.784,-1.7853,-1.7882,-1.7882,-1.7911,-1.792,-1.7952,-1.7972,-1.7962,-1.8014,-1.8015,-1.8018,-1.8,-1.8001,-1.8001,-1.7995,-1.7975,0,0,0,0,0,-1.7656,-1.7685,-1.7726,-1.7754,-1.7768,-1.7802,-1.782,-1.7836,-1.7868,-1.788,-1.7907,-1.7937,-1.7966,-1.7984,-1.8014,-1.8046,-1.8055,-1.8058,-1.8059,-1.8059,-1.8061,-1.8079,-1.8081,-1.8062,-1.8062,-1.8062,0,0,-1.7655,-1.7686,-1.7702,-1.775,-1.7775,-1.7803,-1.7812,-1.7841,-1.7862,-1.7884,-1.7919,-1.794,-1.7974,-1.8008,-1.8024,-1.8025,-1.8068,-1.806,-1.806,-1.8062,-1.808,-1.8082,-1.8083,-1.8063,-1.8063,-1.8063,0,0,-1.7667,-1.7694,-1.772,-1.7744,-1.7782,-1.7804,-1.781,-1.7851,-1.7866,-1.7901,-1.7918,-1.7942,-1.7992,-1.8016,-1.8035,-1.8055,-1.8066,-1.8064,-1.8065,-1.8082,-1.8083,-1.8085,-1.8092,-1.8094,-1.8066,-1.8066,-1.8066,0,-1.7661,-1.7704,-1.7731,-1.776,-1.778,-1.7802,-1.7828,-1.785,-1.7895,-1.7908,-1.7909,-1.7972,-1.7997,-1.8036,-1.8041,-1.8056,-1.8063,-1.8059,-1.8081,-1.8083,-1.8084,-1.8091,-1.8094,-1.8065,-1.8065,-1.8065,-1.8065,0,-1.7695,-1.7724,-1.774,-1.7784,-1.7806,-1.7833,-1.7863,-1.7882,-1.7897,-1.7918,-1.7953,-1.7983,-1.8019,-1.8029,-1.8044,-1.807,-1.807,-1.8076,-1.8077,-1.8085,-1.8092,-1.8095,-1.8064,-1.8065,-1.8065,-1.8065,0,0,-1.7695,-1.7753,-1.7758,-1.7778,-1.782,-1.7844,-1.7871,-1.7906,-1.7922,-1.7952,-1.7975,-1.8016,-1.8022,-1.8043,-1.806,-1.8075,-1.8089,-1.8079,-1.808,-1.8079,-1.8119,-1.8114,-1.8117,-1.8096,-1.8097,-1.8097,-1.8116,0,-1.7713,-1.7764,-1.7788,-1.7828,-1.7855,-1.7876,-1.79,-1.7928,-1.7949,-1.7974,-1.7997,-1.8025,-1.8031,-1.8044,-1.806,-1.8084,-1.8097,-1.8083,-1.8117,-1.8118,-1.8108,-1.8121,-1.8116,-1.8132,-1.8119,-1.8119,-1.812,0,-1.774,-1.777,-1.7813,-1.7852,-1.7864,-1.7885,-1.7919,-1.7944,-1.7976,-1.799,-1.8013,-1.8029,-1.8058,-1.8057,-1.8097,-1.8086,-1.8102,-1.8116,-1.8117,-1.8121,-1.8119,-1.8125,-1.8138,-1.814,-1.8124,-1.8124,-1.8124,0,-1.7735,-1.7787,-1.7819,-1.7835,-1.7882,-1.7896,-1.7916,-1.7947,-1.7967,-1.7996,-1.8009,-1.8041,-1.8058,-1.8082,-1.8106,-1.8104,-1.8143,-1.8144,-1.8155,-1.8154,-1.8162,-1.8161,-1.8178,-1.8172,-1.8172,-1.8172,-1.8172,0,-1.7752,-1.7777,-1.7817,-1.7837,-1.7865,-1.7893,-1.792,-1.7941,-1.797,-1.7993,-1.8013,-1.8034,-1.8065,-1.809,-1.8109,-1.8139,-1.8146,-1.8158,-1.8162,-1.8156,-1.8154,-1.8166,-1.8166,-1.8173,-1.8173,-1.8173,-1.8172,0,-1.7752,-1.778,-1.7816,-1.7857,-1.7868,-1.7887,-1.7922,-1.7941,-1.7963,-1.7992,-1.8001,-1.8034,-1.8064,-1.8091,-1.8131,-1.8144,-1.8174,-1.818,-1.8163,-1.8166,-1.8174,-1.8173,-1.8199,-1.8203,-1.8195,-1.8195,-1.8195,0,-1.7761,-1.7781,-1.7824,-1.7841,-1.7861,-1.7889,-1.7909,-1.7936,-1.7956,-1.7994,-1.8009,-1.8041,-1.8068,-1.8115,-1.8142,-1.8173,-1.818,-1.8187,-1.8184,-1.8177,-1.8179,-1.8178,-1.8179,-1.8186,-1.8186,-1.8186,-1.8186,0,-1.7773,-1.7786,-1.7814,-1.7847,-1.7871,-1.7898,-1.7926,-1.7939,-1.7971,-1.7992,-1.8024,-1.8045,-1.8086,-1.8118,-1.8151,-1.8171,-1.8183,-1.8187,-1.8191,-1.8184,-1.8174,-1.8179,-1.8163,-1.8186,-1.8186,-1.8186,-1.8186,-1.8186,-1.7778,-1.7796,-1.7829,-1.786,-1.7884,-1.7909,-1.7929,-1.7953,-1.7981,-1.8017,-1.8031,-1.8063,-1.8094,-1.814,-1.816,-1.8185,-1.8187,-1.8193,-1.8194,-1.8195,-1.8194,-1.817,-1.8191,-1.8191,-1.8191,-1.8191,-1.8191,0,-1.7791,-1.7813,-1.7841,-1.788,-1.7903,-1.7914,-1.7945,-1.7964,-1.7993,-1.8021,-1.8047,-1.8083,-1.8114,-1.8143,-1.8175,-1.8189,-1.8195,-1.8196,-1.8195,-1.8199,-1.819,-1.8184,-1.819,-1.819,-1.819,-1.819,-1.819,-1.819,-1.78,-1.7832,-1.7849,-1.7892,-1.7914,-1.7946,-1.7963,-1.7986,-1.8009,-1.8048,-1.8074,-1.8093,-1.8121,-1.8155,-1.8183,-1.8191,-1.8201,-1.82,-1.821,-1.82,-1.82,-1.82,-1.8194,-1.8202,-1.8202,-1.8217,-1.8217,-1.8217]}]]